www.pogodaiklimat.ru

Погода и климат >> Архив погоды >> Кука Острова >> Penrhyn


ПОГОДА в Penrhyn

  • Прогноз погоды в Penrhyn
  • Монитор погоды в Penrhyn
  • Климат города

АРХИВ ПОГОДЫ в Penrhyn

Время (UTC), дата Ветер
(напр.,м/с)
 
Видим.   Явления Облачность Т
(С)
Тd
(С)
f
(%)
Тe
(С)
Тes
(С)
Комфортность P
(гПа)
Po
(гПа)
Тmin
(С)
Tmax
(С)
R
(мм)
R24
(мм)
S
(см)
06 17.08 В 3 н/о н/о +27.3 +24.1 83 +38 +38 очень
душно
1011.4 1011.0
09 17.08 ЮВ 3 н/о н/о +26.2 +24.7 91 +37 +37 очень
душно
1012.7 1013.0
12 17.08 ЮВ 5 н/о н/о +26.5 +23.8 85 +36 +36 очень
душно
1011.8 1012.0 +31.1 0.8
15 17.08 0 н/о +26.6 +23.7 84 +34 +34 очень
душно
1012.1 1012.5
18 17.08 В 4 н/о н/о +27.2 +23.8 82 +37 +37 очень
душно
1012.6 1013.0 5
21 17.08 В 4 н/о н/о +29.1 +23.7 73 +40 +40 очень
душно
1012.3 1012.0
00 18.08 В 4 н/о н/о +29.5 +24.1 73 +41 +41 опасность
перегрева
1009.9 1010.0 +24.2
03 18.08 В 4 н/о н/о +28.3 +24.5 80 +40 +40 очень
душно
1009.2 1009.0
06 18.08 В 3 н/о н/о +27.7 +24.3 82 +39 +39 очень
душно
1011.6 1012.0
09 18.08 В 2 н/о н/о +27.5 +24.5 84 +39 +39 очень
душно
1012.4 1012.0
12 18.08 В 4 н/о н/о +27.2 +24.2 84 +38 +38 очень
душно
1011.3 1011.0
15 18.08 В 5 н/о н/о +27.0 +24.4 86 +38 +38 очень
душно
1010.7 1011.0
18 18.08 В 4 н/о н/о +28.3 +24.3 79 +40 +40 очень
душно
1012.4 1012.0
21 18.08 В 4 н/о н/о +31.9 +25.1 67 +45 +45 опасность
перегрева
1012.7 1013.0
00 19.08 В 5 н/о н/о +31.9 +25.1 67 +45 +45 опасность
перегрева
1009.5 1010.0 +26.9
03 19.08 В 4 н/о н/о +31.0 +24.6 69 +44 +44 опасность
перегрева
1008.5 1009.0
06 19.08 В 2 н/о н/о +24.0 +24.0 100 +20 +20 1009.8 1010.0
09 19.08 В 3 н/о н/о +27.7 +24.0 80 +38 +38 очень
душно
1010.6 1011.0
12 19.08 В 4 н/о н/о +27.5 +25.0 86 +39 +39 очень
душно
1008.9 1009.0 +32.2
15 19.08 В 6 н/о н/о +27.4 +24.8 86 +39 +39 очень
душно
1008.3 1008.0
18 19.08 В 6 н/о н/о +28.1 +25.4 85 +41 +41 опасность
перегрева
1010.1 1010.0
21 19.08 В 5 н/о н/о +29.5 +25.9 81 +44 +44 опасность
перегрева
1010.8 1011.0
00 20.08 В 5 н/о н/о +29.6 +24.7 75 +42 +42 опасность
перегрева
1008.8 1009.0 +27.1
03 20.08 ЮВ 7 н/о н/о +28.4 +25.3 83 +41 +41 опасность
перегрева
1008.4 1008.0
06 20.08 ЮВ 6 н/о н/о +27.7 +24.2 81 +39 +39 очень
душно
1010.2 1010.0 0.4
09 20.08 В 4 н/о н/о +27.6 +23.9 80 +38 +38 очень
душно
1011.0 1011.0
12 20.08 В 4 н/о н/о +27.5 +23.7 80 +38 +38 очень
душно
1010.0 1010.0 +30.4
15 20.08 В 4 н/о н/о +27.4 +23.3 78 +37 +37 очень
душно
1009.6 1010.0
18 20.08 В 4 н/о н/о +27.3 +23.6 80 +37 +37 очень
душно
1011.5 1012.0
21 20.08 ЮВ 3 н/о н/о +29.7 +23.0 67 +40 +40 очень
душно
1011.9 1012.0
00 21.08 ЮВ 4 н/о н/о +25.6 +23.6 89 +35 +35 очень
душно
1010.3 1010.0 +25.6 0.6
03 21.08 В 1 н/о н/о +29.7 +23.8 71 +41 +41 опасность
перегрева
1009.1 1009.0
06 21.08 В 3 н/о н/о +27.8 +23.5 77 +38 +38 очень
душно
1010.4 1010.0 0.2
09 21.08 В 3 н/о н/о +27.9 +24.1 80 +39 +39 очень
душно
1011.6 1012.0
15 21.08 ЮВ 3 н/о н/о +27.5 +23.3 78 +37 +37 очень
душно
1010.4 1010.0
18 21.08 В 3 н/о н/о +28.1 +23.2 75 +38 +38 очень
душно
1012.8 1013.0
21 21.08 ЮВ 3 н/о н/о +29.5 +24.2 73 +41 +41 опасность
перегрева
1013.1 1013.0
03 22.08 В 2 н/о н/о +29.5 +23.4 70 +40 +40 очень
душно
1010.2 1010.0
06 22.08 В 3 н/о н/о +28.0 +24.0 79 +39 +39 очень
душно
1011.8 1012.0
09 22.08 В 3 н/о н/о +27.9 +24.1 80 +39 +39 очень
душно
1013.0 1013.0
12 22.08 В 3 н/о н/о +27.5 +23.5 79 +37 +37 очень
душно
1012.1 1012.0 +30.9
15 22.08 В 3 н/о н/о +27.3 +23.5 80 +37 +37 очень
душно
1011.9 1012.0
18 22.08 В 3 н/о н/о +28.3 +23.7 76 +39 +39 очень
душно
1013.2 1013.0
21 22.08 В 3 н/о н/о +30.2 +24.6 72 +43 +43 опасность
перегрева
1013.7 1014.0
00 23.08 В 3 н/о н/о +31.0 +24.7 69 +44 +44 опасность
перегрева
1011.7 1012.0 +27.0
03 23.08 В 2 н/о н/о +30.8 +25.0 71 +44 +44 опасность
перегрева
1011.2 1011.0
06 23.08 В 3 н/о н/о +27.9 +24.5 82 +39 +39 очень
душно
1012.8 1013.0
09 23.08 В 4 н/о н/о +27.6 +23.8 80 +38 +38 очень
душно
1013.1 1013.0
12 23.08 В 3 н/о н/о +32.0 +24.4 64 +44 +44 опасность
перегрева
1012.1 1012.0
15 23.08 В 2 н/о н/о +26.8 +24.7 88 +38 +38 очень
душно
1011.5 1012.0
18 23.08 В 3 н/о н/о +28.5 +24.2 78 +40 +40 очень
душно
1012.9 1013.0
00 24.08 В 2 н/о н/о +30.5 +25.3 74 +44 +44 опасность
перегрева
1011.6 1012.0 +26.5
03 24.08 В 2 н/о н/о +30.7 +24.9 71 +44 +44 опасность
перегрева
1010.8 1011.0

 

Местоположение метеостанции Penrhyn (Кука Острова): широта -9.03 долгота -158.00 высота над уровнем моря 1 м.

В архиве по умолчанию представлена погода в Penrhyn за последнюю неделю. Архивные данные за месяц целиком и за предыдущие месяцы, начиная с января 2011 года, Вы можете получить, выбрав интересующий диапазон дат из раскрывающегося списка и нажав кнопку "Ввод!".

Внимание! Время в таблицах - всемирное. Для получения местного времени необходимо прибавить поправку, которая в Penrhyn равна -10 ч.

Смотрите также архив погоды в соседних городах и на ближайших метеорологических станциях:

Погода в Manihiki (Кука Острова) (366 км)
Погода в Bora-Bora Airport (Французская Полинезия) (1070 км)
Погода в Aitutaki (Кука Острова) (1105 км)
Погода в Christmas (Кирибати) (1226 км)
Погода в Tahiti-Faaa (Французская Полинезия) (1313 км)
Погода в Rarotonga (Кука Острова) (1367 км)
Погода в Takaroa (Французская Полинезия) (1539 км)
Погода в Lufi-Lufi (Самоа) (1573 км)
Погода в Le Mafa (Самоа) (1580 км)
Погода в Apia (Американское Самоа) (1584 км)

Пояснения к столбцам:

Ветер - указаны скорость ветра в м/с - средняя за 10 мин, порывы в срок и между сроками (в фигурных скобках) и направление, откуда дует ветер: С - северный, СВ - северо-восточный, В - восточный, ЮВ - юго-восточный, Ю - южный, ЮЗ - юго-западный, З - западный, СЗ - северо-западный.
Видимость - горизонтальная дальность видимости в метрах или километрах. При видимости от 1 до 10 км при отсутствии осадков обычно наблюдается дымка, при ухудшении видимости до 1 км и менее - туман. В сухую погоду видимость может ухудшаться дымом, пылью или мглою.
Явления - указаны атмосферные явления, наблюдавшиеся в срок или в последний час перед сроком; фигурными скобками обозначены явления, наблюдавшиеся между сроками (за 1-3 часа до срока); квадратными скобками обозначены град или гололедные отложения с указанием их диаметра в мм.
Облачность - указаны через наклонную черту общая и нижняя облачность в баллах и высота нижней границы облаков в метрах; квадратными скобками обозначены формы облаков: Ci - перистые, Cs - перисто-слоистые, Cc - перисто-кучевые, Ac - высококучевые, As - высокослоистые, Sc - слоисто-кучевые, Ns - слоисто-дождевые, Cu - кучевые, Cb - кучево-дождевые. Подробнее классификацию облаков см. в Атласе облаков (PDF).
T - Температура воздуха - температура, измеренная на высоте 2 м над землей.
Td - Температура точки росы - температура, при понижении до которой содержащийся в воздухе водяной пар достигнет насыщения.
f - Относительная влажность воздуха - влажноcть воздуха, измеренная на высоте 2 м над землей.
Te - Эффективная температура - температура, которую ощущает одетый по сезону человек в тени. Характеристика душности погоды. При расчете учитывается влияние влажности воздуха и скорости ветра на теплоощущения человека.
Tes - Эффективная температура на солнце - температура, которую ощущает человек, с поправкой на солнечный нагрев. Характеристика знойности погоды. Зависит от высоты солнца над горизонтом, облачности и скорости ветра. Ночью, в пасмурную погоду, а также при ветре 12 м/с и более поправка равна нулю.
P - Атмосферное давление - приведенное к уровню моря атмосферное давление.
Po - Атмосферное давление - измеренное на уровне метеостанции атмосферное давление.
Tmin - Минимальная температура - минимум температуры воздуха на высоте 2 м над землей.
Tmax - Максимальная температура - максимум температуры воздуха на высоте 2 м над землей.
R - Количество осадков - Количество выпавших осадков за период времени, мм. При наведении курсора мыши на число - период времени, за который выпало указанное количество осадков.
R24 - Количество осадков - Количество выпавших осадков за 24 часа, мм.
S - Снежный покров - Высота снежного покрова, см. При наведении курсора мыши на число - состояние снежного покрова и степень покрытия местности в баллах.